Location: Siratepeler Tepesi
(39.1042°N, 32.0781°E)
Time: 05:00:35
(UTC+00:00)

CSL-04 Rocket - Pass Details

Date: 11 April 2026
Orbit: 804 x 858 km, 98.7° (Epoch: 9 May)

Event Time Altitude Azimuth Distance (km) Brightness Sun altitude
Exits shadow 17:50:59 - 173° (S) 2,841 6.1 -16.6°
Reaches altitude 10° 17:51:57 10° 174° (S) 2,465 5.8 -16.7°
Maximum altitude 17:57:24 70° 258° (WSW) 908 4.0 -17.7°
Drops below altitude 10° 18:02:58 10° 342° (NNW) 2,499 6.8 -18.6°
Sets 18:05:22 0° 345° (NNW) 3,441 7.5 -19.1°
